User: anonymous   Login
Location: Observatory
(49.4490°N, 2.6360°W)
Time: 18:53:25
(UTC+01:00)
Language:

CAS-4A - Orbit

View from above orbital plane
View from above orbital plane
View from above satellite
View from above satellite

Ground track
Ground track

The orbit data is extracted from the following two-line orbital elements,

1 42761U 17034D   24148.98000407  .00014743  00000-0  54161-3 0  9991
2 42761  43.0241 339.0694 0011993 230.1392 129.8406 15.27679978384324
Epoch (UTC): 27 May 2024 23:31:12
Eccentricity: 0.0011993
inclination: 43.0241°
perigee height: 474 km
apogee height: 491 km
right ascension of ascending node: 339.0694°
argument of perigee: 230.1392°
revolutions per day: 15.27679978
mean anomaly at epoch: 129.8406°
orbit number at epoch: 38432

The dashed part of the orbit path shows where the satellite is in the earth's shadow,  

DLR